Location: Cahas Mountain Overlook
(37.0833°N, 80.1000°W)
Time: 14:53:22
(UTC-05:00)

S-56A Canister/Altair - Pass Details

Date: 29 November 2023
Orbit: 639 x 2488 km, 38.9° (Epoch: 03 March)

Event Time Altitude Azimuth Distance (km) Brightness Sun altitude
Rises 19:44:55 0° 282° (WNW) 3,736 12.1 -31.6°
Reaches altitude 10° 19:47:27 10° 273° (W) 2,993 11.4 -32.1°
Maximum altitude 19:54:06 35° 210° (SSW) 2,161 9.9 -33.4°
Enters shadow 20:00:16 19° 160° (SSE) 3,351 10.6 -34.6°
Drops below altitude 10° 20:03:35 10° 151° (SSE) 4,276 - -35.3°
Sets 20:08:00 0° 143° (SE) 5,553 - -36.2°
